| time (UTC) | temp F | wind direction | speed MPH | gust MPH | rain 1hr in | rain 24hr in | rain mn in | humidity % | barometer mb |
| 20260831003235 | 87 | 198 | 2.0 | 2.0 | 0.00 | 0.00 | 0.00 | 47 | 1016.0 |
| 20260831002735 | 87 | 255 | 0.0 | 2.0 | 0.00 | 0.00 | 0.00 | 46 | 1016.0 |
| 20260831002235 | 88 | 228 | 1.0 | 4.0 | 0.00 | 0.00 | 0.00 | 46 | 1016.0 |
| 20260831001736 | 88 | 211 | 2.0 | 2.0 | 0.00 | 0.00 | 0.00 | 45 | 1016.0 |
| 20260831001235 | 89 | 205 | 2.0 | 3.0 | 0.00 | 0.00 | 0.00 | 45 | 1016.0 |
| 20260831000735 | 89 | 194 | 2.0 | 3.0 | 0.00 | 0.00 | 0.00 | 44 | 1016.0 |
| 20260831000235 | 89 | 218 | 2.0 | 2.0 | 0.00 | 0.00 | 0.00 | 44 | 1016.0 |
| 20260830235735 | 89 | 207 | 2.0 | 3.0 | 0.00 | 0.00 | 0.00 | 43 | 1016.0 |
| 20260830235235 | 90 | 223 | 2.0 | 4.0 | 0.00 | 0.00 | 0.00 | 42 | 1016.0 |
| 20260830234735 | 90 | 197 | 2.0 | 5.0 | 0.00 | 0.00 | 0.00 | 41 | 1016.0 |
| 20260830234235 | 91 | 242 | 2.0 | 3.0 | 0.00 | 0.00 | 0.00 | 40 | 1016.0 |
| 20260830233736 | 91 | 186 | 2.0 | 2.0 | 0.00 | 0.00 | 0.00 | 40 | 1016.0 |
| 20260830233235 | 91 | 175 | 0.0 | 3.0 | 0.00 | 0.00 | 0.00 | 39 | 1016.0 |
| 20260830232735 | 92 | 225 | 2.0 | 3.0 | 0.00 | 0.00 | 0.00 | 38 | 1016.0 |
| 20260830232235 | 91 | 162 | 1.0 | 5.0 | 0.00 | 0.00 | 0.00 | 38 | 1016.0 |
| 20260830231735 | 92 | 161 | 2.0 | 4.0 | 0.00 | 0.00 | 0.00 | 37 | 1016.0 |
| 20260830231235 | 92 | 198 | 2.0 | 3.0 | 0.00 | 0.00 | 0.00 | 37 | 1016.0 |
| 20260830230736 | 92 | 189 | 2.0 | 3.0 | 0.00 | 0.00 | 0.00 | 38 | 1016.0 |
| 20260830230235 | 93 | 175 | 2.0 | 6.0 | 0.00 | 0.00 | 0.00 | 37 | 1016.0 |
| 20260830225735 | 93 | 100 | 3.0 | 3.0 | 0.00 | 0.00 | 0.00 | 37 | 1016.0 |
| 20260830225237 | 93 | 200 | 2.0 | 4.0 | 0.00 | 0.00 | 0.00 | 37 | 1016.0 |
| 20260830224735 | 93 | 226 | 2.0 | 3.0 | 0.00 | 0.00 | 0.00 | 37 | 1016.0 |
| 20260830224235 | 93 | 129 | 2.0 | 4.0 | 0.00 | 0.00 | 0.00 | 37 | 1016.0 |
| 20260830223735 | 94 | 185 | 2.0 | 3.0 | 0.00 | 0.00 | 0.00 | 36 | 1016.0 |
| 20260830223235 | 94 | 200 | 2.0 | 3.0 | 0.00 | 0.00 | 0.00 | 36 | 1016.0 |
| 20260830222735 | 94 | 208 | 2.0 | 3.0 | 0.00 | 0.00 | 0.00 | 36 | 1016.0 |
| 20260830222236 | 93 | 235 | 2.0 | 2.0 | 0.00 | 0.00 | 0.00 | 35 | 1016.0 |
| 20260830221735 | 94 | 209 | 2.0 | 3.0 | 0.00 | 0.00 | 0.00 | 35 | 1016.0 |
| 20260830221235 | 94 | 214 | 1.0 | 3.0 | 0.00 | 0.00 | 0.00 | 34 | 1016.0 |
| 20260830220735 | 94 | 222 | 2.0 | 3.0 | 0.00 | 0.00 | 0.00 | 33 | 1016.0 |
| 20260830220235 | 95 | 196 | 2.0 | 5.0 | 0.00 | 0.00 | 0.00 | 32 | 1016.0 |
| 20260830215735 | 95 | 177 | 1.0 | 4.0 | 0.00 | 0.00 | 0.00 | 33 | 1016.0 |
| 20260830215235 | 95 | 260 | 1.0 | 3.0 | 0.00 | 0.00 | 0.00 | 33 | 1016.0 |
| 20260830214735 | 95 | 202 | 2.0 | 3.0 | 0.00 | 0.00 | 0.00 | 33 | 1016.0 |
| 20260830214235 | 95 | 233 | 1.0 | 3.0 | 0.00 | 0.00 | 0.00 | 33 | 1016.0 |
| 20260830213736 | 95 | 221 | 2.0 | 3.0 | 0.00 | 0.00 | 0.00 | 32 | 1016.0 |
| 20260830213236 | 94 | 165 | 1.0 | 3.0 | 0.00 | 0.00 | 0.00 | 33 | 1016.0 |
| 20260830212738 | 94 | 183 | 2.0 | 4.0 | 0.00 | 0.00 | 0.00 | 33 | 1016.0 |
| 20260830212235 | 95 | 117 | 3.0 | 6.0 | 0.00 | 0.00 | 0.00 | 32 | 1016.0 |
| 20260830211735 | 95 | 245 | 0.0 | 4.0 | 0.00 | 0.00 | 0.00 | 34 | 1016.0 |
| 20260830211235 | 94 | 191 | 2.0 | 4.0 | 0.00 | 0.00 | 0.00 | 33 | 1016.0 |
| 20260830210735 | 94 | 230 | 1.0 | 3.0 | 0.00 | 0.00 | 0.00 | 33 | 1016.0 |
| 20260830210236 | 94 | 152 | 2.0 | 3.0 | 0.00 | 0.00 | 0.00 | 32 | 1016.0 |
| 20260830205735 | 94 | 234 | 4.0 | 4.0 | 0.00 | 0.00 | 0.00 | 32 | 1016.0 |
| 20260830205235 | 94 | 191 | 0.0 | 4.0 | 0.00 | 0.00 | 0.00 | 33 | 1016.0 |
| 20260830204735 | 94 | 218 | 2.0 | 3.0 | 0.00 | 0.00 | 0.00 | 32 | 1016.0 |
| 20260830204236 | 94 | 160 | 2.0 | 4.0 | 0.00 | 0.00 | 0.00 | 32 | 1016.0 |
| 20260830203737 | 94 | 160 | 2.0 | 3.0 | 0.00 | 0.00 | 0.00 | 34 | 1016.0 |
| 20260830203235 | 94 | 233 | 2.0 | 3.0 | 0.00 | 0.00 | 0.00 | 32 | 1016.0 |
| 20260830202735 | 95 | 222 | 2.0 | 4.0 | 0.00 | 0.00 | 0.00 | 32 | 1016.0 |
| 20260830202235 | 94 | 228 | 1.0 | 4.0 | 0.00 | 0.00 | 0.00 | 33 | 1016.0 |
| 20260830201735 | 94 | 187 | 2.0 | 3.0 | 0.00 | 0.00 | 0.00 | 33 | 1016.0 |
| 20260830201235 | 94 | 206 | 1.0 | 3.0 | 0.00 | 0.00 | 0.00 | 33 | 1016.0 |
| 20260830200735 | 94 | 252 | 2.0 | 3.0 | 0.00 | 0.00 | 0.00 | 32 | 1016.0 |
| 20260830200235 | 94 | 191 | 2.0 | 4.0 | 0.00 | 0.00 | 0.00 | 33 | 1016.0 |
| 20260830195735 | 94 | 191 | 2.0 | 4.0 | 0.00 | 0.00 | 0.00 | 33 | 1017.0 |
| 20260830195236 | 94 | 200 | 1.0 | 5.0 | 0.00 | 0.00 | 0.00 | 34 | 1016.0 |
| 20260830194737 | 94 | 183 | 1.0 | 3.0 | 0.00 | 0.00 | 0.00 | 34 | 1017.0 |
| 20260830194235 | 94 | 246 | 2.0 | 3.0 | 0.00 | 0.00 | 0.00 | 35 | 1017.0 |
| 20260830193735 | 94 | 117 | 7.0 | 7.0 | 0.00 | 0.00 | 0.00 | 34 | 1017.0 |
| 20260830193235 | 93 | 239 | 3.0 | 3.0 | 0.00 | 0.00 | 0.00 | 35 | 1017.0 |
| 20260830192735 | 93 | 186 | 2.0 | 4.0 | 0.00 | 0.00 | 0.00 | 35 | 1017.0 |
| 20260830192235 | 93 | 247 | 7.0 | 7.0 | 0.00 | 0.00 | 0.00 | 35 | 1017.0 |
| 20260830191735 | 93 | 256 | 2.0 | 3.0 | 0.00 | 0.00 | 0.00 | 35 | 1017.0 |
| 20260830191235 | 93 | 190 | 3.0 | 3.0 | 0.00 | 0.00 | 0.00 | 35 | 1017.0 |
| 20260830190735 | 93 | 255 | 2.0 | 2.0 | 0.00 | 0.00 | 0.00 | 34 | 1017.0 |
| 20260830190237 | 93 | 231 | 2.0 | 7.0 | 0.00 | 0.00 | 0.00 | 35 | 1017.0 |
| 20260830185735 | 92 | 180 | 2.0 | 3.0 | 0.00 | 0.00 | 0.00 | 36 | 1017.0 |
| 20260830185236 | 92 | 130 | 2.0 | 3.0 | 0.00 | 0.00 | 0.00 | 35 | 1017.0 |
| 20260830184735 | 92 | 218 | 2.0 | 3.0 | 0.00 | 0.00 | 0.00 | 37 | 1017.0 |
| 20260830183750 | 92 | 248 | 1.0 | 2.0 | 0.00 | 0.00 | 0.00 | 35 | 1017.0 |
| 20260830183235 | 92 | 297 | 2.0 | 3.0 | 0.00 | 0.00 | 0.00 | 35 | 1017.0 |
| 20260830182739 | 92 | 254 | 2.0 | 4.0 | 0.00 | 0.00 | 0.00 | 35 | 1017.0 |
| 20260830182236 | 92 | 243 | 1.0 | 4.0 | 0.00 | 0.00 | 0.00 | 36 | 1017.0 |
| 20260830181736 | 91 | 160 | 3.0 | 4.0 | 0.00 | 0.00 | 0.00 | 37 | 1017.0 |
| 20260830181235 | 91 | 266 | 2.0 | 3.0 | 0.00 | 0.00 | 0.00 | 35 | 1018.0 |
| 20260830180736 | 91 | 177 | 3.0 | 5.0 | 0.00 | 0.00 | 0.00 | 35 | 1018.0 |
| 20260830180235 | 91 | 216 | 3.0 | 5.0 | 0.00 | 0.00 | 0.00 | 36 | 1017.0 |
| 20260830175735 | 91 | 180 | 3.0 | 4.0 | 0.00 | 0.00 | 0.00 | 36 | 1018.0 |
| 20260830175235 | 91 | 205 | 2.0 | 4.0 | 0.00 | 0.00 | 0.00 | 37 | 1018.0 |
| 20260830174735 | 90 | 237 | 2.0 | 7.0 | 0.00 | 0.00 | 0.00 | 37 | 1018.0 |
| 20260830174235 | 90 | 208 | 2.0 | 5.0 | 0.00 | 0.00 | 0.00 | 39 | 1018.0 |
| 20260830173735 | 90 | 232 | 2.0 | 3.0 | 0.00 | 0.00 | 0.00 | 39 | 1018.0 |
| 20260830173241 | 89 | 238 | 2.0 | 5.0 | 0.00 | 0.00 | 0.00 | 38 | 1018.0 |
| 20260830172735 | 89 | 148 | 4.0 | 4.0 | 0.00 | 0.00 | 0.00 | 38 | 1018.0 |
| 20260830172235 | 89 | 259 | 3.0 | 6.0 | 0.00 | 0.00 | 0.00 | 38 | 1018.0 |
| 20260830171735 | 89 | 250 | 6.0 | 7.0 | 0.00 | 0.00 | 0.00 | 39 | 1018.0 |
| 20260830171235 | 88 | 248 | 1.0 | 5.0 | 0.00 | 0.00 | 0.00 | 40 | 1018.0 |
| 20260830170735 | 88 | 250 | 3.0 | 3.0 | 0.00 | 0.00 | 0.00 | 40 | 1018.0 |
| 20260830170235 | 88 | 250 | 2.0 | 7.0 | 0.00 | 0.00 | 0.00 | 39 | 1018.0 |
| 20260830165735 | 88 | 253 | 4.0 | 5.0 | 0.00 | 0.00 | 0.00 | 40 | 1019.0 |
| 20260830165238 | 87 | 229 | 2.0 | 6.0 | 0.00 | 0.00 | 0.00 | 40 | 1019.0 |
| 20260830164736 | 87 | 279 | 6.0 | 7.0 | 0.00 | 0.00 | 0.00 | 42 | 1018.0 |
| 20260830164237 | 87 | 231 | 5.0 | 5.0 | 0.00 | 0.00 | 0.00 | 41 | 1019.0 |
| 20260830163735 | 86 | 253 | 2.0 | 6.0 | 0.00 | 0.00 | 0.00 | 41 | 1019.0 |
| 20260830163236 | 86 | 234 | 2.0 | 7.0 | 0.00 | 0.00 | 0.00 | 40 | 1019.0 |
| 20260830162735 | 86 | 257 | 7.0 | 11.0 | 0.00 | 0.00 | 0.00 | 40 | 1019.0 |
| 20260830162236 | 86 | 237 | 6.0 | 8.0 | 0.00 | 0.00 | 0.00 | 41 | 1019.0 |
| 20260830161735 | 86 | 214 | 3.0 | 7.0 | 0.00 | 0.00 | 0.00 | 42 | 1019.0 |
| 20260830161235 | 86 | 279 | 3.0 | 10.0 | 0.00 | 0.00 | 0.00 | 43 | 1019.0 |
| 20260830160735 | 85 | 241 | 3.0 | 7.0 | 0.00 | 0.00 | 0.00 | 43 | 1019.0 |
| 20260830160235 | 85 | 244 | 4.0 | 6.0 | 0.00 | 0.00 | 0.00 | 43 | 1019.0 |
| 20260830155735 | 85 | 253 | 4.0 | 5.0 | 0.00 | 0.00 | 0.00 | 43 | 1019.0 |
| 20260830155235 | 85 | 251 | 3.0 | 9.0 | 0.00 | 0.00 | 0.00 | 43 | 1019.0 |
| 20260830154735 | 85 | 241 | 5.0 | 7.0 | 0.00 | 0.00 | 0.00 | 44 | 1019.0 |
| 20260830154235 | 85 | 258 | 3.0 | 7.0 | 0.00 | 0.00 | 0.00 | 46 | 1018.0 |
| 20260830153735 | 85 | 250 | 3.0 | 10.0 | 0.00 | 0.00 | 0.00 | 45 | 1018.0 |
| 20260830153235 | 84 | 247 | 3.0 | 6.0 | 0.00 | 0.00 | 0.00 | 45 | 1018.0 |
| 20260830152735 | 84 | 256 | 6.0 | 7.0 | 0.00 | 0.00 | 0.00 | 46 | 1018.0 |
| 20260830152235 | 84 | 243 | 2.0 | 17.0 | 0.00 | 0.00 | 0.00 | 45 | 1018.0 |
| 20260830151736 | 84 | 230 | 5.0 | 8.0 | 0.00 | 0.00 | 0.00 | 47 | 1018.0 |
| 20260830151235 | 84 | 265 | 5.0 | 8.0 | 0.00 | 0.00 | 0.00 | 47 | 1018.0 |
| 20260830150736 | 83 | 258 | 5.0 | 5.0 | 0.00 | 0.00 | 0.00 | 49 | 1018.0 |
| 20260830150238 | 82 | 246 | 3.0 | 3.0 | 0.00 | 0.00 | 0.00 | 50 | 1018.0 |
| 20260830145735 | 82 | 232 | 4.0 | 4.0 | 0.00 | 0.00 | 0.00 | 51 | 1018.0 |
| 20260830145236 | 83 | 254 | 2.0 | 5.0 | 0.00 | 0.00 | 0.00 | 51 | 1018.0 |
| 20260830144735 | 83 | 269 | 1.0 | 4.0 | 0.00 | 0.00 | 0.00 | 53 | 1018.0 |
| 20260830144235 | 82 | 253 | 1.0 | 4.0 | 0.00 | 0.00 | 0.00 | 54 | 1018.0 |
| 20260830143735 | 81 | 240 | 2.0 | 3.0 | 0.00 | 0.00 | 0.00 | 55 | 1018.0 |
| 20260830143235 | 80 | 236 | 3.0 | 6.0 | 0.00 | 0.00 | 0.00 | 56 | 1018.0 |
| 20260830142735 | 80 | 234 | 2.0 | 5.0 | 0.00 | 0.00 | 0.00 | 58 | 1018.0 |
| 20260830142235 | 79 | 263 | 3.0 | 3.0 | 0.00 | 0.00 | 0.00 | 59 | 1018.0 |
| 20260830141736 | 78 | 254 | 3.0 | 6.0 | 0.00 | 0.00 | 0.00 | 60 | 1018.0 |
| 20260830141235 | 78 | 264 | 2.0 | 6.0 | 0.00 | 0.00 | 0.00 | 60 | 1018.0 |
| 20260830140735 | 78 | 242 | 6.0 | 6.0 | 0.00 | 0.00 | 0.00 | 61 | 1018.0 |
| 20260830140235 | 78 | 226 | 1.0 | 3.0 | 0.00 | 0.00 | 0.00 | 62 | 1018.0 |
| 20260830135735 | 79 | 247 | 2.0 | 3.0 | 0.00 | 0.00 | 0.00 | 64 | 1018.0 |
| 20260830135235 | 78 | 233 | 2.0 | 3.0 | 0.00 | 0.00 | 0.00 | 65 | 1018.0 |
| 20260830134735 | 78 | 235 | 1.0 | 2.0 | 0.00 | 0.00 | 0.00 | 66 | 1018.0 |
| 20260830134235 | 78 | 225 | 2.0 | 3.0 | 0.00 | 0.00 | 0.00 | 66 | 1018.0 |
| 20260830133738 | 78 | 207 | 1.0 | 3.0 | 0.00 | 0.00 | 0.00 | 65 | 1018.0 |
| 20260830133235 | 77 | 219 | 0.0 | 3.0 | 0.00 | 0.00 | 0.00 | 65 | 1018.0 |
| 20260830132735 | 77 | 215 | 2.0 | 3.0 | 0.00 | 0.00 | 0.00 | 67 | 1019.0 |
| 20260830132235 | 75 | 243 | 3.0 | 3.0 | 0.00 | 0.00 | 0.00 | 68 | 1019.0 |
| 20260830131735 | 75 | 224 | 2.0 | 4.0 | 0.00 | 0.00 | 0.00 | 69 | 1019.0 |
| 20260830131235 | 74 | 304 | 1.0 | 3.0 | 0.00 | 0.00 | 0.00 | 71 | 1018.0 |
| 20260830130736 | 73 | 199 | 0.0 | 2.0 | 0.00 | 0.00 | 0.00 | 73 | 1019.0 |
| 20260830130235 | 71 | 229 | 0.0 | 2.0 | 0.00 | 0.00 | 0.00 | 76 | 1019.0 |
| 20260830125735 | 70 | 188 | 0.0 | 2.0 | 0.00 | 0.00 | 0.00 | 78 | 1019.0 |
| 20260830125235 | 70 | 262 | 1.0 | 1.0 | 0.00 | 0.00 | 0.00 | 79 | 1019.0 |
| 20260830124735 | 70 | 235 | 0.0 | 2.0 | 0.00 | 0.00 | 0.00 | 80 | 1019.0 |
| 20260830124235 | 69 | 246 | 1.0 | 2.0 | 0.00 | 0.00 | 0.00 | 82 | 1019.0 |
| 20260830123735 | 69 | 250 | 1.0 | 2.0 | 0.00 | 0.00 | 0.00 | 82 | 1019.0 |
| 20260830123236 | 68 | 231 | 1.0 | 2.0 | 0.00 | 0.00 | 0.00 | 83 | 1019.0 |
| 20260830122736 | 68 | 252 | 1.0 | 2.0 | 0.00 | 0.00 | 0.00 | 85 | 1019.0 |
| 20260830122235 | 68 | 248 | 1.0 | 1.0 | 0.00 | 0.00 | 0.00 | 85 | 1018.0 |
| 20260830121736 | 68 | 241 | 1.0 | 2.0 | 0.00 | 0.00 | 0.00 | 85 | 1019.0 |
| 20260830121235 | 68 | 240 | 1.0 | 2.0 | 0.00 | 0.00 | 0.00 | 85 | 1019.0 |
| 20260830120735 | 67 | 219 | 2.0 | 2.0 | 0.00 | 0.00 | 0.00 | 86 | 1018.0 |
| 20260830120236 | 66 | 237 | 1.0 | 2.0 | 0.00 | 0.00 | 0.00 | 88 | 1019.0 |
| 20260830115736 | 66 | 235 | 1.0 | 2.0 | 0.00 | 0.00 | 0.00 | 89 | 1018.0 |
| 20260830115235 | 66 | 239 | 1.0 | 2.0 | 0.00 | 0.00 | 0.00 | 90 | 1018.0 |
| 20260830114739 | 66 | 233 | 1.0 | 2.0 | 0.00 | 0.00 | 0.00 | 89 | 1019.0 |
| 20260830114235 | 66 | 217 | 1.0 | 2.0 | 0.00 | 0.00 | 0.00 | 90 | 1018.0 |
| 20260830113735 | 66 | 242 | 1.0 | 2.0 | 0.00 | 0.00 | 0.00 | 91 | 1018.0 |
| 20260830113235 | 66 | 233 | 0.0 | 2.0 | 0.00 | 0.00 | 0.00 | 91 | 1018.0 |
| 20260830112735 | 66 | 241 | 0.0 | 1.0 | 0.00 | 0.00 | 0.00 | 90 | 1018.0 |
| 20260830112235 | 66 | 230 | 0.0 | 1.0 | 0.00 | 0.00 | 0.00 | 90 | 1018.0 |
| 20260830111735 | 66 | 240 | 0.0 | 1.0 | 0.00 | 0.00 | 0.00 | 90 | 1018.0 |
| 20260830111235 | 66 | 217 | 1.0 | 2.0 | 0.00 | 0.00 | 0.00 | 90 | 1018.0 |
| 20260830110735 | 66 | 210 | 0.0 | 1.0 | 0.00 | 0.00 | 0.00 | 90 | 1018.0 |
| 20260830110235 | 66 | 242 | 0.0 | 2.0 | 0.00 | 0.00 | 0.00 | 89 | 1018.0 |
| 20260830105735 | 66 | 222 | 1.0 | 2.0 | 0.00 | 0.00 | 0.00 | 89 | 1018.0 |
| 20260830105235 | 67 | 201 | 1.0 | 2.0 | 0.00 | 0.00 | 0.00 | 88 | 1018.0 |
| 20260830104737 | 67 | 217 | 1.0 | 2.0 | 0.00 | 0.00 | 0.00 | 88 | 1018.0 |
| 20260830104235 | 68 | 242 | 1.0 | 2.0 | 0.00 | 0.00 | 0.00 | 88 | 1018.0 |
| 20260830103735 | 68 | 235 | 1.0 | 1.0 | 0.00 | 0.00 | 0.00 | 86 | 1018.0 |
| 20260830103235 | 68 | 255 | 0.0 | 0.0 | 0.00 | 0.00 | 0.00 | 84 | 1018.0 |
| 20260830102734 | 68 | 249 | 1.0 | 1.0 | 0.00 | 0.00 | 0.00 | 82 | 1018.0 |
| 20260830102235 | 68 | 239 | 0.0 | 1.0 | 0.00 | 0.00 | 0.00 | 82 | 1018.0 |
| 20260830101735 | 69 | 222 | 1.0 | 2.0 | 0.00 | 0.00 | 0.00 | 82 | 1018.0 |
| 20260830101235 | 68 | 228 | 1.0 | 2.0 | 0.00 | 0.00 | 0.00 | 82 | 1018.0 |
| 20260830100735 | 68 | 226 | 1.0 | 2.0 | 0.00 | 0.00 | 0.00 | 83 | 1018.0 |
| 20260830100235 | 69 | 260 | 1.0 | 1.0 | 0.00 | 0.00 | 0.00 | 83 | 1018.0 |
| 20260830095735 | 69 | 245 | 0.0 | 2.0 | 0.00 | 0.00 | 0.00 | 83 | 1018.0 |
| 20260830095235 | 69 | 226 | 1.0 | 2.0 | 0.00 | 0.00 | 0.00 | 83 | 1018.0 |
| 20260830094735 | 69 | 215 | 2.0 | 2.0 | 0.00 | 0.00 | 0.00 | 83 | 1018.0 |
| 20260830094235 | 69 | 246 | 1.0 | 1.0 | 0.00 | 0.00 | 0.00 | 82 | 1018.0 |
| 20260830093735 | 69 | 250 | 1.0 | 1.0 | 0.00 | 0.00 | 0.00 | 82 | 1018.0 |
| 20260830093235 | 69 | 301 | 0.0 | 2.0 | 0.00 | 0.00 | 0.00 | 82 | 1018.0 |
| 20260830092738 | 70 | 262 | 1.0 | 1.0 | 0.00 | 0.00 | 0.00 | 81 | 1018.0 |
| 20260830092235 | 70 | 261 | 0.0 | 2.0 | 0.00 | 0.00 | 0.00 | 81 | 1018.0 |
| 20260830091735 | 70 | 264 | 2.0 | 2.0 | 0.00 | 0.00 | 0.00 | 80 | 1018.0 |
| 20260830091236 | 70 | 209 | 1.0 | 2.0 | 0.00 | 0.00 | 0.00 | 80 | 1018.0 |
| 20260830090736 | 70 | 243 | 1.0 | 1.0 | 0.00 | 0.00 | 0.00 | 79 | 1018.0 |
| 20260830090235 | 70 | 269 | 0.0 | 2.0 | 0.00 | 0.00 | 0.00 | 79 | 1018.0 |
| 20260830085735 | 71 | 276 | 2.0 | 2.0 | 0.00 | 0.00 | 0.00 | 79 | 1018.0 |
| 20260830085235 | 71 | 199 | 0.0 | 2.0 | 0.00 | 0.00 | 0.00 | 79 | 1018.0 |
| 20260830084735 | 71 | 154 | 3.0 | 3.0 | 0.00 | 0.00 | 0.00 | 79 | 1018.0 |
| 20260830084236 | 70 | 214 | 2.0 | 2.0 | 0.00 | 0.00 | 0.00 | 80 | 1018.0 |
| 20260830083736 | 70 | 217 | 0.0 | 3.0 | 0.00 | 0.00 | 0.00 | 80 | 1018.0 |
| 20260830083235 | 70 | 238 | 0.0 | 2.0 | 0.00 | 0.00 | 0.00 | 80 | 1018.0 |
| 20260830082736 | 70 | 205 | 0.0 | 1.0 | 0.00 | 0.00 | 0.00 | 80 | 1018.0 |
| 20260830082235 | 70 | 235 | 1.0 | 2.0 | 0.00 | 0.00 | 0.00 | 80 | 1018.0 |
| 20260830081735 | 71 | 188 | 0.0 | 2.0 | 0.00 | 0.00 | 0.00 | 80 | 1018.0 |
| 20260830081235 | 71 | 246 | 0.0 | 1.0 | 0.00 | 0.00 | 0.00 | 79 | 1018.0 |
| 20260830080735 | 71 | 222 | 1.0 | 2.0 | 0.00 | 0.00 | 0.00 | 79 | 1018.0 |
| 20260830080235 | 71 | 234 | 1.0 | 1.0 | 0.00 | 0.00 | 0.00 | 79 | 1018.0 |
| 20260830075735 | 71 | 224 | 0.0 | 2.0 | 0.00 | 0.00 | 0.00 | 79 | 1018.0 |
| 20260830075235 | 71 | 217 | 1.0 | 2.0 | 0.00 | 0.00 | 0.00 | 79 | 1018.0 |
| 20260830074735 | 71 | 209 | 0.0 | 2.0 | 0.00 | 0.00 | 0.00 | 78 | 1018.0 |
| 20260830074235 | 71 | 217 | 0.0 | 2.0 | 0.00 | 0.00 | 0.00 | 78 | 1018.0 |
| 20260830073735 | 71 | 160 | 0.0 | 2.0 | 0.00 | 0.00 | 0.00 | 78 | 1019.0 |
| 20260830073235 | 71 | 231 | 1.0 | 2.0 | 0.00 | 0.00 | 0.00 | 78 | 1018.0 |
| 20260830072735 | 71 | 147 | 2.0 | 3.0 | 0.00 | 0.00 | 0.00 | 78 | 1018.0 |
| 20260830072235 | 71 | 238 | 0.0 | 2.0 | 0.00 | 0.00 | 0.00 | 78 | 1018.0 |
| 20260830071735 | 71 | 168 | 1.0 | 1.0 | 0.00 | 0.00 | 0.00 | 78 | 1018.0 |
| 20260830071235 | 71 | 224 | 0.0 | 2.0 | 0.00 | 0.00 | 0.00 | 78 | 1018.0 |
| 20260830070735 | 71 | 229 | 0.0 | 2.0 | 0.00 | 0.00 | 0.00 | 78 | 1018.0 |
| 20260830070235 | 71 | 199 | 0.0 | 1.0 | 0.00 | 0.00 | 0.00 | 77 | 1018.0 |
| 20260830065735 | 71 | 248 | 0.0 | 1.0 | 0.00 | 0.00 | 0.00 | 77 | 1018.0 |
| 20260830065235 | 71 | 223 | 1.0 | 1.0 | 0.00 | 0.00 | 0.00 | 77 | 1018.0 |
| 20260830064735 | 71 | 252 | 0.0 | 2.0 | 0.00 | 0.00 | 0.00 | 77 | 1018.0 |
| 20260830064235 | 71 | 237 | 1.0 | 2.0 | 0.00 | 0.00 | 0.00 | 77 | 1018.0 |
| 20260830063735 | 72 | 242 | 1.0 | 1.0 | 0.00 | 0.00 | 0.00 | 77 | 1018.0 |
| 20260830063235 | 72 | 246 | 0.0 | 2.0 | 0.00 | 0.00 | 0.00 | 76 | 1018.0 |
| 20260830062739 | 72 | 269 | 1.0 | 2.0 | 0.00 | 0.00 | 0.00 | 76 | 1018.0 |
| 20260830062237 | 72 | 225 | 1.0 | 2.0 | 0.00 | 0.00 | 0.00 | 76 | 1018.0 |
| 20260830061736 | 72 | 209 | 1.0 | 2.0 | 0.00 | 0.00 | 0.00 | 76 | 1018.0 |
| 20260830061236 | 72 | 232 | 1.0 | 2.0 | 0.00 | 0.00 | 0.00 | 76 | 1019.0 |
| 20260830060735 | 72 | 220 | 1.0 | 2.0 | 0.00 | 0.00 | 0.00 | 76 | 1018.0 |
| 20260830060235 | 72 | 214 | 0.0 | 2.0 | 0.00 | 0.00 | 0.00 | 76 | 1018.0 |
| 20260830055735 | 73 | 236 | 1.0 | 2.0 | 0.00 | 0.00 | 0.00 | 76 | 1018.0 |
| 20260830055235 | 73 | 202 | 1.0 | 2.0 | 0.00 | 0.00 | 0.00 | 75 | 1018.0 |
| 20260830054735 | 73 | 221 | 1.0 | 2.0 | 0.00 | 0.00 | 0.00 | 75 | 1018.0 |
| 20260830054235 | 73 | 249 | 0.0 | 2.0 | 0.00 | 0.00 | 0.00 | 75 | 1018.0 |
| 20260830053735 | 73 | 174 | 1.0 | 2.0 | 0.00 | 0.00 | 0.00 | 75 | 1018.0 |
| 20260830053235 | 73 | 236 | 1.0 | 2.0 | 0.00 | 0.00 | 0.00 | 76 | 1018.0 |
| 20260830052735 | 73 | 224 | 1.0 | 2.0 | 0.00 | 0.00 | 0.00 | 76 | 1018.0 |
| 20260830052237 | 73 | 212 | 1.0 | 2.0 | 0.00 | 0.00 | 0.00 | 76 | 1018.0 |
| 20260830051736 | 73 | 224 | 0.0 | 2.0 | 0.00 | 0.00 | 0.00 | 76 | 1018.0 |
| 20260830051235 | 73 | 228 | 1.0 | 2.0 | 0.00 | 0.00 | 0.00 | 76 | 1018.0 |
| 20260830050735 | 73 | 213 | 1.0 | 2.0 | 0.00 | 0.00 | 0.00 | 76 | 1018.0 |
| 20260830050235 | 73 | 214 | 1.0 | 2.0 | 0.00 | 0.00 | 0.00 | 76 | 1019.0 |
| 20260830045735 | 73 | 235 | 1.0 | 2.0 | 0.00 | 0.00 | 0.00 | 76 | 1018.0 |
| 20260830045235 | 73 | 234 | 1.0 | 1.0 | 0.00 | 0.00 | 0.00 | 75 | 1018.0 |
| 20260830044735 | 73 | 259 | 1.0 | 1.0 | 0.00 | 0.00 | 0.00 | 75 | 1019.0 |
| 20260830044235 | 73 | 276 | 1.0 | 1.0 | 0.00 | 0.00 | 0.00 | 75 | 1019.0 |
| 20260830043735 | 73 | 243 | 0.0 | 1.0 | 0.00 | 0.00 | 0.00 | 74 | 1019.0 |
| 20260830043235 | 73 | 247 | 1.0 | 2.0 | 0.00 | 0.00 | 0.00 | 74 | 1019.0 |
| 20260830042735 | 74 | 284 | 0.0 | 2.0 | 0.00 | 0.00 | 0.00 | 74 | 1019.0 |
| 20260830042235 | 73 | 224 | 0.0 | 2.0 | 0.00 | 0.00 | 0.00 | 74 | 1018.0 |
| 20260830041735 | 73 | 255 | 0.0 | 2.0 | 0.00 | 0.00 | 0.00 | 74 | 1019.0 |
| 20260830041236 | 73 | 228 | 1.0 | 2.0 | 0.00 | 0.00 | 0.00 | 74 | 1018.0 |
| 20260830040736 | 73 | 266 | 1.0 | 1.0 | 0.00 | 0.00 | 0.00 | 73 | 1018.0 |
| 20260830040236 | 74 | 269 | 1.0 | 1.0 | 0.00 | 0.00 | 0.00 | 73 | 1018.0 |
| 20260830035735 | 74 | 264 | 1.0 | 1.0 | 0.00 | 0.00 | 0.00 | 72 | 1018.0 |
| 20260830035236 | 74 | 248 | 1.0 | 2.0 | 0.00 | 0.00 | 0.00 | 72 | 1018.0 |
| 20260830034735 | 74 | 282 | 1.0 | 2.0 | 0.00 | 0.00 | 0.00 | 72 | 1018.0 |
| 20260830034235 | 74 | 237 | 1.0 | 2.0 | 0.00 | 0.00 | 0.00 | 72 | 1019.0 |
| 20260830033735 | 74 | 256 | 1.0 | 1.0 | 0.00 | 0.00 | 0.00 | 71 | 1018.0 |
| 20260830033235 | 74 | 248 | 2.0 | 2.0 | 0.00 | 0.00 | 0.00 | 71 | 1018.0 |
| 20260830032735 | 74 | 241 | 1.0 | 1.0 | 0.00 | 0.00 | 0.00 | 71 | 1018.0 |
| 20260830032235 | 74 | 247 | 0.0 | 2.0 | 0.00 | 0.00 | 0.00 | 70 | 1018.0 |
| 20260830031735 | 74 | 256 | 1.0 | 1.0 | 0.00 | 0.00 | 0.00 | 70 | 1018.0 |
| 20260830031235 | 75 | 278 | 1.0 | 1.0 | 0.00 | 0.00 | 0.00 | 70 | 1019.0 |
| 20260830030737 | 75 | 266 | 1.0 | 1.0 | 0.00 | 0.00 | 0.00 | 70 | 1018.0 |
| 20260830030235 | 75 | 264 | 1.0 | 2.0 | 0.00 | 0.00 | 0.00 | 69 | 1018.0 |
| 20260830025736 | 75 | 265 | 1.0 | 2.0 | 0.00 | 0.00 | 0.00 | 69 | 1018.0 |
| 20260830025237 | 75 | 260 | 1.0 | 2.0 | 0.00 | 0.00 | 0.00 | 69 | 1018.0 |
| 20260830024735 | 75 | 240 | 1.0 | 1.0 | 0.00 | 0.00 | 0.00 | 69 | 1018.0 |
| 20260830024239 | 75 | 250 | 1.0 | 2.0 | 0.00 | 0.00 | 0.00 | 68 | 1018.0 |
| 20260830023735 | 75 | 260 | 1.0 | 1.0 | 0.00 | 0.00 | 0.00 | 67 | 1018.0 |
| 20260830023236 | 75 | 255 | 1.0 | 2.0 | 0.00 | 0.00 | 0.00 | 67 | 1018.0 |
| 20260830022736 | 76 | 248 | 1.0 | 2.0 | 0.00 | 0.00 | 0.00 | 67 | 1018.0 |
| 20260830022235 | 76 | 246 | 0.0 | 1.0 | 0.00 | 0.00 | 0.00 | 66 | 1018.0 |
| 20260830021736 | 76 | 269 | 1.0 | 1.0 | 0.00 | 0.00 | 0.00 | 65 | 1018.0 |
| 20260830021235 | 76 | 264 | 1.0 | 1.0 | 0.00 | 0.00 | 0.00 | 65 | 1018.0 |
| 20260830020735 | 77 | 272 | 1.0 | 1.0 | 0.00 | 0.00 | 0.00 | 64 | 1018.0 |
| 20260830020238 | 77 | 262 | 1.0 | 1.0 | 0.00 | 0.00 | 0.00 | 63 | 1018.0 |
| 20260830015735 | 77 | 251 | 1.0 | 2.0 | 0.00 | 0.00 | 0.00 | 63 | 1018.0 |
| 20260830015239 | 78 | 269 | 1.0 | 2.0 | 0.00 | 0.00 | 0.00 | 63 | 1018.0 |
| 20260830014735 | 78 | 263 | 1.0 | 2.0 | 0.00 | 0.00 | 0.00 | 62 | 1018.0 |
| 20260830014235 | 78 | 255 | 0.0 | 2.0 | 0.00 | 0.00 | 0.00 | 62 | 1018.0 |
| 20260830013735 | 78 | 150 | 1.0 | 2.0 | 0.00 | 0.00 | 0.00 | 61 | 1018.0 |
| 20260830013235 | 79 | 284 | 1.0 | 2.0 | 0.00 | 0.00 | 0.00 | 61 | 1018.0 |
| 20260830012736 | 79 | 271 | 2.0 | 2.0 | 0.00 | 0.00 | 0.00 | 60 | 1018.0 |
| 20260830012235 | 79 | 261 | 2.0 | 2.0 | 0.00 | 0.00 | 0.00 | 60 | 1017.0 |
| 20260830011736 | 79 | 273 | 1.0 | 3.0 | 0.00 | 0.00 | 0.00 | 59 | 1017.0 |
| 20260830011235 | 80 | 137 | 1.0 | 2.0 | 0.00 | 0.00 | 0.00 | 59 | 1018.0 |
| 20260830010735 | 80 | 265 | 2.0 | 2.0 | 0.00 | 0.00 | 0.00 | 58 | 1018.0 |
| 20260830010235 | 80 | 222 | 0.0 | 2.0 | 0.00 | 0.00 | 0.00 | 57 | 1018.0 |
| 20260830005736 | 81 | 247 | 1.0 | 2.0 | 0.00 | 0.00 | 0.00 | 57 | 1018.0 |
| 20260830005235 | 81 | 259 | 1.0 | 2.0 | 0.00 | 0.00 | 0.00 | 56 | 1018.0 |
| 20260830004735 | 81 | 255 | 0.0 | 2.0 | 0.00 | 0.00 | 0.00 | 55 | 1018.0 |
| 20260830004235 | 82 | 244 | 2.0 | 3.0 | 0.00 | 0.00 | 0.00 | 55 | 1018.0 |
| 20260830003736 | 82 | 137 | 0.0 | 2.0 | 0.00 | 0.00 | 0.00 | 54 | 1018.0 |